Home > Weather > Buenaventura > Past weeks

Flag for Colombia Past Weather in Buenaventura, Colombia — Yesterday and Last 2 Weeks

Now
79 °F

Passing clouds.


Feels Like: 81 °F
Forecast: 76 / 86 °F
Wind: 8 mph from Northwest

Location: Cali / Alfonso Bonillaaragon

Current Time: Aug 28, 2016 at 9:09:11 PM

Latest Report: Aug 28, 2016 at 8:00 PM


Visibility: N/A

Pressure: 29.99 "Hg

Humidity: 61%

Dew Point: 64 °F

Location of BuenaventuraLocation

Past Weather in Buenaventura — Graph

°F

Buenaventura Temperature Yesterday

Maximum temperature yesterday: 88 °F (at 2:00 PM)
Minimum temperature yesterday: 68 °F (at 12:00 AM)
Average temperature yesterday: 76 °F

High & Low Weather Summary for the Past Weeks

 TemperatureHumidityPressure
High95 °F (Aug 21, 2:00 PM)100% (Aug 21, 4:00 AM)30.09 "Hg (Aug 21, 4:00 AM)
Low63 °F (Aug 21, 5:00 AM)25% (Aug 21, 2:00 PM)29.29 "Hg (Aug 24, 8:00 PM)
Average77 °F69%29.95 "Hg
* Reported Aug 13 8:00 PM — Aug 28 8:00 PM, Buenaventura, Weather by CustomWeather, © 2016

Note: Actual official high and low records may vary slightly from our data, if they occured in-between our weather recording intervals... More about our weather records

Advertising

Buenaventura Weather History for the Previous 24 Hours

Scroll right to see more
 ConditionsComfort  
Time TempWeatherWind HumidityBarometerVisibility
8:00 PM
Sun, Aug 28
79 °FPassing clouds.8 mph61%29.99 "HgN/A
7:00 PM77 °FPassing clouds.21 mph65%29.94 "HgN/A
6:00 PM79 °FPartly sunny.14 mph65%29.90 "HgN/A
5:00 PM82 °FScattered clouds.12 mph58%29.87 "HgN/A
4:00 PM88 °FScattered showers. Partly sunny.12 mph49%29.86 "HgN/A
3:00 PM88 °FBroken clouds.8 mph49%29.87 "HgN/A
2:00 PM88 °FScattered clouds.12 mph43%29.89 "HgN/A
1:00 PM90 °FPassing clouds.3 mph41%29.94 "HgN/A
12:00 PM88 °FScattered clouds.5 mph49%30.00 "HgN/A
11:00 AM84 °FPassing clouds.5 mph55%30.04 "HgN/A
10:00 AM82 °FPassing clouds.6 mph58%30.07 "Hg6 mi
9:00 AM77 °FScattered clouds.5 mph69%30.08 "Hg6 mi
8:00 AM75 °FScattered clouds.2 mph74%30.08 "Hg6 mi
7:00 AM72 °FScattered clouds.6 mph83%30.05 "HgN/A
6:00 AM68 °FPartly sunny.2 mph88%30.02 "HgN/A
5:00 AM66 °FPassing clouds.5 mph94%30.00 "HgN/A
4:00 AM66 °FPassing clouds.5 mph94%29.99 "HgN/A
3:00 AM68 °FPassing clouds.5 mph88%29.98 "HgN/A
2:00 AM68 °FPassing clouds.7 mph88%29.99 "HgN/A
1:00 AM68 °FPassing clouds.7 mph88%29.99 "HgN/A
12:00 AM72 °FPassing clouds.8 mph78%30.00 "HgN/A
11:00 PM
Sat, Aug 27
72 °FPassing clouds.12 mph83%30.00 "HgN/A
10:00 PM75 °FPassing clouds.10 mph74%29.98 "HgN/A
9:00 PM75 °FPassing clouds.9 mph74%29.96 "HgN/A
Weather by CustomWeather, © 2016

See weather overviewHow to use our weather pages